COSMOS 1275 DEB, 12719

Orbit data source: Space-Track

COSMOS 1275 DEB, 12719 is space debris in LEO originally from a launch on Thu, 04 Jun 1981 UTC launched from the Plesetsk Missile And Space Complex (PKMTR). Debris objects in space refer to the collection of defunct objects orbiting the Earth. Examples of debris include non-operational satellites, rocket bodies, and fragments generated from explosions, collisions, or faulty payload assembly.

Loading next visibility...
Identifier
12719, 1981-053BL
Orbit
LEO
Country
Flag of CISCIS
Related business
Manufacturer
Unknown
Mission
Spacecraft
Bus & Motor
Unknown
Mass
Unknown
Launch date (UTC)
1981-06-04 (45 years ago)
Launch vehicle
Unknown
Launch site
Plesetsk Missile And Space Complex (PKMTR)
Object type
Payload
Rocket body
Debris
Shape & HBR
Unknown shape, 0.2 m
Radar Cross Section
Medium (>0.1 m² and <1 m²)

Expand to show TLE details & history
Last TLE update: 15 hours ago

TLE from 15 hours ago
0 COSMOS 1275 DEB
1 12719U 81053BL  26034.31500119  .00001604  00000-0  11915-2 0  9992
2 12719  82.9624 142.5707 0019008  21.1559  32.6348 13.94397680250913
Epoch: 2026-02-03T07:33Z
TLE epoch observation values (Epoch: 2026-02-03T07:33:36.102Z)
Latitude
53.41896°
Longitude
-94.80291°
Altitude
910.343 km
Speed
7.408 km/s
True Right ascension
10h 08m 22s
True Declination
53° 15' 28"
Sunlit
Object was in full shadow at epoch
Visualization orbit readout
Latitude
Unknown
Longitude
Unknown
Altitude
Unknown
Speed
Unknown
Apparent Right ascension
Unknown
Apparent Declination
Unknown
Sunlit
N/A
Visualization observer readout
Local Sidereal Time
00:14:47
Azimuth
Unknown
Elevation
Unknown
Doppler factor
Unknown
Orbital elements
Apogee altitude
924.235 km
Perigee altitude
896.527 km
Semi-major axis
7,288.518 km
Eccentricity
0.0019
Inclination
82.9624°
RAAN
142.5707°
Arg. of periapsis
21.1559°
True anomaly
32.7525°
Mean anomaly
32.6348°
Eccentric anomaly
32.69363°
Mean motion
3.48806 °/min
Orbital period
103.21 mins
BSTAR
0.0011915
Loading maneuver chart data...
Computing Atmospheric mass density...
Loading historical data...
Loading historical data...
Loading historical data...
Loading historical data...
Loading historical data...
Loading historical data...
Loading historical data...

Documentation

Showing up to 5 results
|